Date String (YYYY-MM-DD hh:mm:ss) UTC,Instrument flags,Ambient pressure (hPa),Sample flow (lpm),Bypass flow (lpm),Sample temperature (°C),Ambient temperature (°C),ASC tube jacket temperature (°C),LED temperature (°C),Box temperature (°C),Sample RH (%),Span deviation,Mass concentration (μg/m³),Mass concentration (μg/m³),Mass concentration (μg/m³)
DateTimeUTC,F1_M11,P_M11,Q1_M11,Q2_M11,T1_M11,T2_M11,T3_M11,T4_M11,T5_M11,U1_M11,ZSPAN_M11,X0_M11,X2_M11,X1_M11
2023-02-04 03:00:00,,0827.2,4.99,0.00,24.7,23.3,00.0,33.5,26.5,05.3,0000.0,0001.68,0000.79,0000.37
2023-02-04 03:01:00,,0827.2,4.99,0.00,24.7,23.3,00.0,33.5,26.5,05.2,0000.0,0001.65,0000.77,0000.37
2023-02-04 03:02:00,,0827.2,5.00,0.00,24.7,23.2,00.0,33.5,26.5,05.2,0000.0,0001.51,0000.73,0000.37
2023-02-04 03:03:00,,0827.3,4.99,0.00,24.6,23.1,00.0,33.5,26.4,05.4,0000.0,0001.45,0000.72,0000.38
2023-02-04 03:04:00,,0827.3,4.99,0.00,24.6,22.9,00.0,33.5,26.3,05.2,0000.0,0001.59,0000.73,0000.38
2023-02-04 03:05:00,,0827.2,5.00,0.00,24.6,22.8,00.0,33.5,26.3,05.1,0000.0,0001.81,0000.73,0000.38
2023-02-04 03:06:00,,0827.2,5.00,0.00,24.6,22.8,00.0,33.5,26.3,05.2,0000.0,0001.90,0000.73,0000.37
2023-02-04 03:07:00,,0827.2,4.99,0.00,24.6,22.8,00.0,33.5,26.3,05.3,0000.0,0002.26,0000.75,0000.37
2023-02-04 03:08:00,,0827.2,4.99,0.00,24.5,22.9,00.0,33.5,26.3,05.2,0000.0,0002.26,0000.75,0000.37
2023-02-04 03:09:00,,0827.2,5.00,0.00,24.6,23.0,00.0,33.5,26.3,05.5,0000.0,0002.15,0000.70,0000.37
2023-02-04 03:10:00,,0827.2,4.99,0.00,24.6,23.1,00.0,33.5,26.4,05.8,0000.0,0002.19,0000.71,0000.36
2023-02-04 03:11:00,,0827.2,5.00,0.00,24.6,23.1,00.0,33.4,26.4,05.2,0000.0,0002.52,0000.72,0000.35
2023-02-04 03:12:00,,0827.2,4.99,0.00,24.6,23.0,00.0,33.4,26.3,05.2,0000.0,0002.85,0000.71,0000.35
2023-02-04 03:13:00,,0827.1,5.00,0.00,24.5,23.0,00.0,33.4,26.3,05.5,0000.0,0002.94,0000.73,0000.35
2023-02-04 03:14:00,,0827.1,5.00,0.00,24.6,23.0,00.0,33.4,26.4,05.6,0000.0,0002.99,0000.73,0000.34
2023-02-04 03:15:00,,0827.1,4.99,0.00,24.5,22.9,00.0,33.4,26.3,05.1,0000.0,0002.83,0000.69,0000.34
2023-02-04 03:16:00,,0827.2,4.99,0.00,24.5,22.8,00.0,33.4,26.3,05.0,0000.0,0002.52,0000.65,0000.33
2023-02-04 03:17:00,,0827.1,5.00,0.00,24.5,22.6,00.0,33.4,26.2,04.6,0000.0,0002.41,0000.64,0000.33
2023-02-04 03:18:00,,0827.3,5.00,0.00,24.4,22.6,00.0,33.4,26.1,04.6,0000.0,0002.10,0000.64,0000.34
2023-02-04 03:19:00,,0827.2,4.99,0.00,24.4,22.6,00.0,33.4,26.1,04.6,0000.0,0002.04,0000.63,0000.34
2023-02-04 03:20:00,,0827.4,4.99,0.00,24.4,22.6,00.0,33.4,26.1,04.7,0000.0,0002.15,0000.65,0000.33
2023-02-04 03:21:00,,0827.2,4.99,0.00,24.4,22.6,00.0,33.3,26.1,04.6,0000.0,0002.54,0000.63,0000.34
2023-02-04 03:22:00,,0827.1,5.02,0.00,24.4,22.7,00.0,33.3,26.2,04.9,0000.0,0002.09,0000.61,0000.33
2023-02-04 03:23:00,,0827.4,5.00,0.00,24.4,22.9,00.0,33.3,26.2,05.0,0000.0,0001.85,0000.60,0000.32
2023-02-04 03:24:00,,0827.3,5.02,0.00,24.4,22.9,00.0,33.3,26.3,05.0,0000.0,0001.74,0000.58,0000.32
2023-02-04 03:25:00,,0827.1,5.00,0.00,24.4,23.0,00.0,33.3,26.3,05.1,0000.0,0001.65,0000.57,0000.32
2023-02-04 03:26:00,,0827.1,5.00,0.00,24.4,23.0,00.0,33.3,26.3,05.1,0000.0,0001.73,0000.61,0000.32
2023-02-04 03:27:00,,0827.0,5.01,0.00,24.5,23.1,00.0,33.3,26.3,05.1,0000.0,0001.83,0000.64,0000.33
2023-02-04 03:28:00,,0827.0,5.00,0.00,24.5,23.2,00.0,33.3,26.4,05.1,0000.0,0001.85,0000.64,0000.32
2023-02-04 03:29:00,,0827.1,5.02,0.00,24.5,23.2,00.0,33.3,26.4,05.1,0000.0,0001.89,0000.63,0000.32
2023-02-04 03:30:00,,0827.3,5.01,0.00,24.5,23.2,00.0,33.3,26.4,05.5,0000.0,0001.95,0000.64,0000.31
2023-02-04 03:31:00,,0827.4,5.00,0.00,24.5,23.3,00.0,33.3,26.4,05.7,0000.0,0001.90,0000.64,0000.31
2023-02-04 03:32:00,,0827.3,5.01,0.00,24.6,23.3,00.0,33.3,26.5,05.5,0000.0,0001.44,0000.66,0000.32
2023-02-04 03:33:00,,0827.4,4.99,0.00,24.6,23.3,00.0,33.3,26.5,05.2,0000.0,0001.68,0000.69,0000.33
2023-02-04 03:34:00,,0827.1,5.01,0.00,24.6,23.4,00.0,33.4,26.5,05.4,0000.0,0001.62,0000.71,0000.34
2023-02-04 03:35:00,,0827.2,5.01,0.00,24.6,23.3,00.0,33.4,26.5,05.4,0000.0,0001.78,0000.78,0000.35
2023-02-04 03:36:00,,0827.1,5.00,0.00,24.6,23.3,00.0,33.4,26.5,05.1,0000.0,0001.92,0000.82,0000.35
2023-02-04 03:37:00,,0827.1,5.01,0.00,24.6,23.3,00.0,33.4,26.5,04.9,0000.0,0001.88,0000.80,0000.35
2023-02-04 03:38:00,,0827.2,5.00,0.00,24.6,23.3,00.0,33.4,26.5,04.8,0000.0,0001.83,0000.78,0000.35
2023-02-04 03:39:00,,0826.9,5.01,0.00,24.7,23.3,00.0,33.4,26.5,04.7,0000.0,0001.86,0000.80,0000.35
2023-02-04 03:40:00,,0826.9,5.00,0.00,24.6,23.3,00.0,33.4,26.5,04.6,0000.0,0001.85,0000.80,0000.35
2023-02-04 03:41:00,,0826.9,5.01,0.00,24.6,23.3,00.0,33.4,26.5,04.5,0000.0,0001.92,0000.80,0000.36
2023-02-04 03:42:00,,0827.1,5.00,0.00,24.7,23.3,00.0,33.4,26.5,04.7,0000.0,0001.95,0000.80,0000.37
2023-02-04 03:43:00,,0827.3,5.00,0.00,24.7,23.3,00.0,33.4,26.5,04.8,0000.0,0002.05,0000.81,0000.37
2023-02-04 03:44:00,,0827.6,4.98,0.00,24.7,23.3,00.0,33.4,26.5,04.9,0000.0,0001.85,0000.81,0000.38
2023-02-04 03:45:00,,0827.3,5.01,0.00,24.7,23.3,00.0,33.4,26.5,04.9,0000.0,0001.83,0000.80,0000.39
2023-02-04 03:46:00,,0827.0,5.01,0.00,24.7,23.3,00.0,33.4,26.6,04.9,0000.0,0001.74,0000.76,0000.39
2023-02-04 03:47:00,,0827.1,5.01,0.00,24.7,23.4,00.0,33.4,26.6,04.9,0000.0,0001.60,0000.71,0000.39
2023-02-04 03:48:00,,0826.9,5.00,0.00,24.7,23.4,00.0,33.5,26.6,04.9,0000.0,0002.02,0000.70,0000.40
2023-02-04 03:49:00,,0826.9,4.99,0.00,24.7,23.4,00.0,33.5,26.6,05.0,0000.0,0002.10,0000.71,0000.41
2023-02-04 03:50:00,,0826.9,5.00,0.00,24.7,23.4,00.0,33.5,26.6,05.0,0000.0,0002.09,0000.72,0000.42
2023-02-04 03:51:00,,0826.9,5.01,0.00,24.7,23.4,00.0,33.5,26.6,05.5,0000.0,0002.47,0000.73,0000.43
2023-02-04 03:52:00,,0827.0,4.99,0.00,24.7,23.4,00.0,33.5,26.6,05.5,0000.0,0002.39,0000.71,0000.43
2023-02-04 03:53:00,,0827.2,4.98,0.00,24.7,23.4,00.0,33.5,26.6,05.6,0000.0,0002.35,0000.70,0000.43
2023-02-04 03:54:00,,0827.0,4.99,0.00,24.7,23.5,00.0,33.5,26.6,05.3,0000.0,0002.31,0000.69,0000.43
2023-02-04 03:55:00,,0826.9,4.99,0.00,24.8,23.5,00.0,33.5,26.6,05.1,0000.0,0002.32,0000.67,0000.42
2023-02-04 03:56:00,,0826.7,4.99,0.00,24.8,23.5,00.0,33.5,26.6,04.8,0000.0,0002.37,0000.67,0000.41
2023-02-04 03:57:00,,0826.8,4.98,0.00,24.8,23.4,00.0,33.5,26.6,04.4,0000.0,0002.59,0000.72,0000.40
2023-02-04 03:58:00,,0826.7,4.99,0.00,24.7,23.4,00.0,33.5,26.6,04.7,0000.0,0002.66,0000.74,0000.40
2023-02-04 03:59:00,,0826.7,5.00,0.00,24.7,23.4,00.0,33.5,26.6,04.6,0000.0,0002.24,0000.73,0000.40
